Current Version              Previous Version:    01  02  03  04  05  06  07  08  09  10  11  12  13  14  15  16  17  18  19  20  21  22  23  24  25  26  27  28  29  30  
   31  32  33  34  35  36  37  38  39  40  41  42  43  44  45  46  47  48  49  50  51  52  53  54  55  56  57  58  59  60  

[Printable]
058
ASUS44 KEWX 250202
RWRTX
SOUTH TEXAS REGIONAL WEATHER ROUNDUP
NATIONAL WEATHER SERVICE AUSTIN/SAN ANTONIO TX
900 PM CDT THU APR 24 2014

NOTE: "FAIR" INDICATED FEW OR NO CLOUDS BELOW 12,000 FEET WITH NO
SIGNIFICANT WEATHER AND/OR OBSTRUCTIONS TO VISIBILITY.

* - THESE STATIONS ARE NOT NWS OR FAA STATIONS...AND ARE NOT SUBJECT
    TO NWS AND FAA QUALITY CONTROL.

TXZ171-172-183>190-250300-
TEXAS HILL COUNTRY AND EDWARDS PLATEAU

CITY           SKY/WX    TMP DP  RH WIND       PRES   REMARKS
JUNCTION       CLEAR     75  29  18 N7        29.93R
*LLANO         CLEAR     75  37  25 N6        29.93R
BURNET         CLEAR     76  37  24 N5        29.93R
*HORSESHOE BAY CLEAR     77  33  19 CALM      29.88R
*KERRVILLE     CLEAR     77  28  17 CALM      29.91R
*FREDERICKSBRG CLEAR     71  35  26 NE3       29.91R
*ROCKSPRINGS   CLEAR     77  28  16 N5        29.96R
*BOERNE STAGE  CLEAR     77  61  57 CALM      29.90R
*CASTROVILLE   CLEAR     80  60  50 E5        29.87R
HONDO          CLEAR     83  63  50 E8        29.88R
*UVALDE        CLEAR     85  63  47 E7        29.84R
DEL RIO        CLOUDY    86  21   9 N6        29.83R
LAUGHLIN AFB   CLEAR     82  25  12 N8        29.85R
CARRIZO SPRGS    N/A    N/A N/A N/A MISG        N/A
$$

TXZ173-191>194-202-209-217>225-228-250300-
CENTRAL AND SOUTH CENTRAL TEXAS

CITY           SKY/WX    TMP DP  RH WIND       PRES   REMARKS
GEORGETOWN     CLEAR     72  43  35 N3        29.88R
AUSTIN/BERGSTM PTCLDY    72  64  76 CALM      29.86R
AUSTIN/MABRY   CLEAR     78  63  59 CALM      29.88R
*AUSTIN/EXEC   CLOUDY    77  46  33 NE6       29.88R
*LAGO VISTA    CLEAR     77  36  22 N7        29.89R
SAN MARCOS     CLEAR     75  59  57 SE3       29.88R
NEW BRAUNFELS  CLEAR     76  63  64 CALM      29.85R
RANDOLPH AFB   NOT AVBL
PT SAN ANTONIO NOT AVBL
SAN ANTONIO    CLEAR     79  63  57 E6        29.87R
STINSON FIELD  CLEAR     82  63  52 NE7       29.84R
*PLEASANTON    CLEAR     81  61  51 E5        29.83R
*LA GRANGE     CLEAR     77  69  78 CALM      29.83R
*GIDDINGS      PTCLDY    76  66  71 CALM      29.89R
*GONZALES      CLEAR     77  69  77 SE7       29.85R
$$

TXZ163>164-176>182-195>201-210>213-226-227-235-250300-
SOUTHEAST TEXAS

CITY           SKY/WX    TMP DP  RH WIND       PRES   REMARKS
COLLEGE STN    PTCLDY    76  68  76 SE3       29.86R
*BRYAN         CLOUDY    74  67  78 CALM      29.85R
*CALDWELL      PTCLDY    75  70  83 CALM      29.88R
*CROCKETT      CLEAR     73  72  94 CALM      29.88R
*BRENHAM       CLEAR     76  67  74 CALM      29.86R
HUNTSVILLE     MOCLDY    74  67  78 S3        29.86R
CONROE         CLEAR     70  68  93 E3        29.87R
HOUSTON BUSH   CLEAR     76  66  71 S5        29.86R
HOUSTON HOBBY  PTCLDY    73  67  81 S9        29.87R
*HOUSTON SW AP CLEAR     73  67  81 S5        29.87R
PEARLAND       CLEAR     74  67  78 S9        29.89R
HOUSTON HOOKS  CLEAR     75  68  78 S6        29.87R
ELLINGTON FLD  MOCLDY    73  68  83 S8        29.89R
SUGAR LAND     CLEAR     73  67  81 S7        29.87R
*HOUSTON EXEC  PTCLDY    72  68  88 S7        29.88R
*CLEVELAND MUN CLEAR     71  68  90 S5        29.87R
*WHARTON       CLEAR     73  67  83 SE8       29.87R
$$

TXZ214>216-236>238-250300-
THE UPPER TEXAS COAST

CITY           SKY/WX    TMP DP  RH WIND       PRES   REMARKS
*ORANGE        CLOUDY    73  66  80 S8        29.90R
PORT ARTHUR    CLOUDY    72  67  84 S7        29.88R
GALVESTON      PTCLDY    72  69  90 SE8       29.89R
ANGLETON       PTCLDY    71  68  90 S9        29.88R
*BAY CITY      CLEAR     74  71  91 SE6       29.87R
PALACIOS       PTCLDY    73  69  87 SE12      29.87R
$$

TXZ229>234-239>247-250300-
TEXAS COASTAL BEND AND RIO GRANDE PLAINS

CITY           SKY/WX    TMP DP  RH WIND       PRES   REMARKS
VICTORIA       PTCLDY    73  69  87 SE9       29.87R
*BEEVILLE      CLEAR     74  69  82 SE7       29.85R
ROCKPORT       CLOUDY    74  71  91 SE9       29.86R
*PORT ARANSAS  PTCLDY    72  72 100 E5        29.85R
*PORT LAVACA   CLEAR     72  69  91 SE7       29.85S
*INGLESIDE     MOCLDY    74  71  90 SE8       29.85R
CORPUS CHRISTI PTCLDY    75  69  81 SE9       29.84R
CORPUS NAS     MOCLDY    74  71  91 SE12      29.85R
*ROBSTOWN      CLEAR     77  69  77 SE10      29.84R
ALICE          CLEAR     75  69  81 SE9       29.84R
KINGSVILLE NAS CLEAR     75  71  87 SE7       29.85R
COTULLA        CLEAR     83  61  47 SE10      29.81R
*FAITH RANCH   CLEAR     84  59  42 SE7       29.81R
LAREDO         CLEAR     83  62  48 E5        29.84R
$$

TXZ248>255-250300-
DEEP SOUTH TEXAS

CITY           SKY/WX    TMP DP  RH WIND       PRES   REMARKS
BROWNSVILLE    MOCLDY    75  72  90 E8        29.84R
PORT ISABEL    CLEAR     76  72  87 SE13      29.83R
*SOUTH PADRE   LGT RAIN  73  72  94 CALM      29.84R
HARLINGEN      PTCLDY    76  70  82 SE15      29.82R
*HEBBRONVILLE  MOCLDY    82  68  62 E10       29.84R
MCALLEN        MOCLDY    79  70  74 SE15      29.82R
*WESLACO       PTCLDY    80  68  67 SE10      29.81R
FALFURRIAS     CLEAR     78  70  76 E7        29.83R
EDINBURG       CLEAR     82  69  62 SE8       29.81R
*ZAPATA        CLEAR     86  61  42 E6        29.79R
$$

TXZ213>215-236>238-242>244-246-247-251-254-255-250300-
CMAN STATIONS

STATION/POSITION TIME  TEMP    WIND        PRES    WAVE
                       AIR SEA DIR/SP/G            HT/PER
                 (UTC) (F)     (DEG/KT/KT) (MB)    (FT/S)
SABINE PASS      0100   72 72  200/  7/ 10 1011.9
SEA RIM ST PARK  0100   71     190/  8/ 10 1012.3
NORTH JETTY/GLS  0100   72 74  180/ 10/ 12   N/A
EAGLE POINT      0100   74 70  210/ 14/ 18 1011.1
MORGANS POINT    0100   74 70  170/  8/ 15   N/A
MISSION/ARANSAS  0100   74     120/  8     1011.0
PORT O`CONNOR    0100          140/  8/ 10   N/A
PORT ARANSAS     0100   72 76  100/  7/  7 1010.7
MALAQUITE BEACH  0100   72 74   90/  7/  8 1009.8
BAFFIN BAY       0100   73 78  120/ 11/ 14 1010.0
PORT ISABEL      0100   74 74  100/ 11/ 13 1010.2
$$

GMZ080-GMZ150>470-250300-
OFFSHORE BUOY REPORTS

STATION/POSITION TIME  TEMP    WIND        PRES    WAVE
                       AIR SEA DIR/SP/G            HT/PER
                 (UTC) (F)     (DEG/KT/KT) (MB)    (FT/S)
20 E GALVESTON   0200   70 70  150/  2/  4 1012.0    3/ 6
35 NE PT MANSFLD 0200   72 72  120/ 10/ 12 1010.4    4/ 6
$$